TimeEDT,TemperatureF,Dew PointF,Humidity,Sea Level PressureIn,VisibilityMPH,Wind Direction,Wind SpeedMPH,Gust SpeedMPH,PrecipitationIn,Events,Conditions,WindDirDegrees,DateUTC
12:53 AM,72.0,61.0,68,30.18,10.0,ENE,8.1,-,N/A,,Clear,60,2012-10-13 04:53:00
1:53 AM,71.1,61.0,70,30.17,10.0,NE,6.9,-,N/A,,Clear,40,2012-10-13 05:53:00
2:53 AM,70.0,62.1,76,30.16,10.0,Calm,Calm,-,N/A,,Clear,0,2012-10-13 06:53:00
3:53 AM,69.1,63.0,81,30.14,10.0,NNE,6.9,-,N/A,,Clear,20,2012-10-13 07:53:00
4:53 AM,69.1,63.0,81,30.14,10.0,NNE,4.6,-,N/A,,Clear,30,2012-10-13 08:53:00
5:53 AM,69.1,63.0,81,30.15,10.0,NNE,3.5,-,N/A,,Clear,30,2012-10-13 09:53:00
6:53 AM,69.1,63.0,81,30.16,10.0,NNE,6.9,-,N/A,,Clear,30,2012-10-13 10:53:00
7:53 AM,70.0,63.0,78,30.17,10.0,NNE,5.8,-,N/A,,Partly Cloudy,20,2012-10-13 11:53:00
8:53 AM,73.0,63.0,71,30.19,10.0,NE,8.1,-,N/A,,Scattered Clouds,50,2012-10-13 12:53:00
9:53 AM,77.0,64.0,64,30.19,10.0,NE,8.1,-,N/A,,Scattered Clouds,50,2012-10-13 13:53:00
10:53 AM,80.1,64.0,58,30.20,10.0,NE,6.9,19.6,N/A,,Scattered Clouds,50,2012-10-13 14:53:00
11:53 AM,81.0,63.0,54,30.19,10.0,ENE,10.4,18.4,N/A,,Scattered Clouds,60,2012-10-13 15:53:00
12:53 PM,82.9,61.0,47,30.17,10.0,East,9.2,19.6,N/A,,Partly Cloudy,80,2012-10-13 16:53:00
1:53 PM,84.0,61.0,46,30.14,10.0,ENE,9.2,19.6,N/A,,Mostly Cloudy,60,2012-10-13 17:53:00
2:53 PM,84.9,61.0,44,30.11,10.0,Variable,6.9,19.6,N/A,,Scattered Clouds,0,2012-10-13 18:53:00
3:53 PM,86.0,62.1,44,30.09,10.0,ENE,8.1,18.4,N/A,,Scattered Clouds,60,2012-10-13 19:53:00
4:53 PM,84.9,62.1,46,30.09,10.0,ENE,13.8,19.6,N/A,,Scattered Clouds,60,2012-10-13 20:53:00
5:53 PM,82.9,62.1,49,30.10,10.0,ENE,5.8,-,N/A,,Scattered Clouds,60,2012-10-13 21:53:00
6:53 PM,82.0,62.1,51,30.11,10.0,NE,8.1,-,N/A,,Partly Cloudy,50,2012-10-13 22:53:00
7:53 PM,80.6,60.8,51,30.12,10.0,NE,6.9,-,N/A,,Clear,50,2012-10-13 23:53:00
8:53 PM,78.1,62.1,58,30.13,10.0,NE,5.8,-,N/A,,Clear,50,2012-10-14 00:53:00
9:53 PM,77.0,62.6,61,30.15,10.0,NE,5.8,-,N/A,,Clear,50,2012-10-14 01:53:00
10:53 PM,75.0,63.0,66,30.15,10.0,NE,4.6,-,N/A,,Mostly Cloudy,50,2012-10-14 02:53:00
11:53 PM,75.0,63.0,66,30.14,10.0,NE,5.8,-,N/A,,Mostly Cloudy,50,2012-10-14 03:53:00